This is the latest recevied weather packets stored in our database for station/object NR6G-12. If no packets are shown the sender has not sent any weather packets the latest 10 day(s).
| Time | Temp. | Humidity | Pressure | Rain* | Wind** | Luminosity | Snow |
|---|---|---|---|---|---|---|---|
| 1788038051 | 24.44° C | 50% | 1019.2 hPa | 0 mm | - | - | - |
| 1788037691 | 24.44° C | 51% | 1019.2 hPa | 0 mm | - | - | - |
| 1788037331 | 24.44° C | 51% | 1019.2 hPa | 0 mm | - | - | - |
| 1788036971 | 23.89° C | 52% | 1019.2 hPa | 0 mm | - | - | - |
| 1788036611 | 23.89° C | 52% | 1019.2 hPa | 0 mm | - | - | - |
| 1788036251 | 23.33° C | 53% | 1019.3 hPa | 0 mm | - | - | - |
| 1788035891 | 22.78° C | 54% | 1019.3 hPa | 0 mm | - | - | - |
| 1788035531 | 22.78° C | 55% | 1019.3 hPa | 0 mm | - | - | - |
| 1788035171 | 22.78° C | 54% | 1019.3 hPa | 0 mm | - | - | - |
| 1788034811 | 22.78° C | 54% | 1019.3 hPa | 0 mm | - | - | - |
| 1788034451 | 23.33° C | 54% | 1019.5 hPa | 0 mm | - | - | - |
| 1788034091 | 23.33° C | 53% | 1019.5 hPa | 0 mm | - | - | - |
| 1788033731 | 23.33° C | 54% | 1019.5 hPa | 0 mm | - | - | - |
| 1788033371 | 23.33° C | 54% | 1019.5 hPa | 0 mm | - | - | - |
| 1788033011 | 22.78° C | 54% | 1019.6 hPa | 0 mm | - | - | - |
| 1788032651 | 22.78° C | 55% | 1019.6 hPa | 0 mm | - | - | - |
| 1788032291 | 22.22° C | 56% | 1019.7 hPa | 0 mm | - | - | - |
| 1788031931 | 21.67° C | 58% | 1019.7 hPa | 0 mm | - | - | - |
| 1788031571 | 21.11° C | 59% | 1019.9 hPa | 0 mm | - | - | - |
| 1788031211 | 21.11° C | 59% | 1019.9 hPa | 0 mm | - | - | - |
| 1788030851 | 21.11° C | 58% | 1019.9 hPa | 0 mm | - | - | - |
| 1788030491 | 21.67° C | 58% | 1019.8 hPa | 0 mm | - | - | - |
| 1788030131 | 21.67° C | 58% | 1019.9 hPa | 0 mm | - | - | - |
| 1788029771 | 21.67° C | 59% | 1020 hPa | 0 mm | - | - | - |
| 1788029411 | 21.67° C | 59% | 1019.9 hPa | 0 mm | - | - | - |
* Rain latest hour (hover to see other rain measurements)
** Current wind speed in m/s (hover to see current wind gust speed)